Location: Ramillies
(50.6368°N, 4.9145°E)
Time: 18:45:01
(UTC+01:00)

ISS - Visible Passes

Search period start: 14 December 2018 00:00
Search period end: 24 December 2018 00:00
Orbit: 401 x 408 km, 51.6° (Epoch: 15 December)

Date Brightness Start Highest point End Pass type
(mag) Time Alt. Az. Time Alt. Az. Time Alt. Az.
14 Dec -1.3 17:13:04 10° W 17:15:51 25° SW 17:18:36 10° SSE visible
21 Dec 0.1 07:57:35 10° SSE 07:58:22 11° SE 07:59:09 10° ESE visible
23 Dec -0.8 07:47:31 10° SSW 07:50:01 20° SE 07:52:29 10° E visible
